カタログに戻る

COSMOS 1375 DEB

運用中LEO
NORAD 17794·DEBRIS·🇷🇺 Russia

打ち上げ Jun 6, 1982 から Plesetsk Cosmodrome

Loading…

次のパス (今後24時間)

TLE

最新Source: Space-Track

元期: Sep 14, 2026, 09:45 UTC

1 17794U 82055AL  26257.40675232  .00001078  00000-0  75040-3 0  9994
2 17794  65.8166  34.6929 0053223 260.4642  99.0417 14.02210968 64759

AllMySatでCOSMOS 1375 DEBをリアルタイム追跡

Download on the App Store